EW2136 Weather Reports


time (UTC)temp
F
wind
direction
speed
knots
gust
knots
rain 1hr
in
rain 24hr
in
rain mn
in
humidity
%
barometer
mb
20260505094004 54 62 0.9 2.6 0.00 0.00 0.00 86 1012.2
20260505093504 54 74 0.9 2.6 0.00 0.00 0.00 86 1012.3
20260505093004 54 98 0.9 2.6 0.00 0.00 0.00 86 1012.2
20260505092504 54 66 0.9 1.7 0.00 0.00 0.00 85 1012.1
20260505092004 54 72 0.9 2.6 0.00 0.00 0.00 85 1012.0
20260505091504 54 74 0.9 2.6 0.00 0.00 0.00 85 1012.0
20260505091004 55 43 0.9 2.6 0.00 0.00 0.00 85 1012.0
20260505090504 55 41 0.9 2.6 0.00 0.00 0.00 85 1012.1
20260505085004 55 59 0.9 3.5 0.00 0.00 0.00 84 1012.0
20260505084504 55 241 0.9 3.5 0.00 0.00 0.00 84 1011.9
20260505084004 55 236 0.9 3.5 0.00 0.00 0.00 84 1011.9
20260505083504 55 61 0.9 3.5 0.00 0.00 0.00 84 1011.8
20260505083004 56 63 0.9 3.5 0.00 0.00 0.00 83 1011.8
20260505082505 56 67 0.9 2.6 0.00 0.00 0.00 83 1011.7
20260505082004 56 77 0.9 2.6 0.00 0.00 0.00 83 1011.7
20260505081503 56 33 0.9 3.5 0.00 0.00 0.00 83 1011.7
20260505080506 56 62 0.9 2.6 0.00 0.00 0.00 82 1011.7
20260505080006 56 59 0.9 1.7 0.00 0.00 0.00 82 1011.6
20260505075506 56 62 0.9 2.6 0.00 0.00 0.00 82 1011.6
20260505075006 57 232 0.0 2.6 0.00 0.00 0.00 82 1011.6
20260505074506 57 32 0.0 1.7 0.00 0.00 0.00 81 1011.5
20260505074006 57 38 0.9 1.7 0.00 0.00 0.00 81 1011.5
20260505073506 57 43 0.0 1.7 0.00 0.00 0.00 81 1011.6
20260505073006 57 47 0.0 1.7 0.00 0.00 0.00 81 1011.5
20260505072506 57 56 0.0 2.6 0.00 0.00 0.00 81 1011.4
20260505072006 57 74 0.0 2.6 0.00 0.00 0.00 80 1011.3
20260505071506 58 81 0.9 2.6 0.00 0.00 0.00 80 1011.2
20260505071006 58 69 0.9 2.6 0.00 0.00 0.00 80 1011.2
20260505070006 58 70 0.9 2.6 0.00 0.00 0.00 80 1011.0
20260505065506 58 79 0.9 2.6 0.00 0.00 0.00 79 1010.9
20260505064506 59 65 0.9 3.5 0.00 0.00 0.00 79 1010.9
20260505064005 59 68 0.9 2.6 0.00 0.00 0.00 79 1010.9
20260505063506 59 84 0.9 3.5 0.00 0.00 0.00 79 1010.8
20260505063005 59 87 0.9 3.5 0.00 0.00 0.00 79 1010.8
20260505062506 59 82 0.9 3.5 0.00 0.00 0.00 78 1010.7
20260505062006 59 91 0.9 3.5 0.00 0.00 0.00 78 1010.7
20260505061506 60 86 0.9 1.7 0.00 0.00 0.00 79 1010.6
20260505061005 60 67 0.9 1.7 0.00 0.00 0.00 78 1010.6
20260505060505 60 68 0.9 1.7 0.00 0.00 0.00 78 1010.5
20260505060006 60 49 0.9 1.7 0.00 0.00 0.00 77 1010.4
20260505055505 60 43 0.0 1.7 0.00 0.00 0.00 77 1010.4
20260505054005 61 45 0.0 2.6 0.00 0.00 0.00 75 1010.2
20260505053505 61 52 0.9 2.6 0.00 0.00 0.00 76 1010.3
20260505053005 61 50 0.9 1.7 0.00 0.00 0.00 75 1010.2
20260505052506 61 48 0.9 1.7 0.00 0.00 0.00 75 1010.1
20260505052006 62 36 0.9 1.7 0.00 0.00 0.00 75 1010.0
20260505051005 62 59 0.9 2.6 0.00 0.00 0.00 75 1009.9
20260505050506 62 58 0.9 1.7 0.00 0.00 0.00 74 1009.9
20260505041506 65 41 0.9 1.7 0.00 0.00 0.00 69 1009.4
20260505041005 65 47 0.0 1.7 0.00 0.00 0.00 67 1009.4
20260505035505 66 25 0.0 0.9 0.00 0.00 0.00 65 1009.2
20260505035006 67 239 0.0 0.9 0.00 0.00 0.00 64 1009.1
20260505034506 67 274 0.0 0.9 0.00 0.00 0.00 63 1009.0
20260505034006 68 324 0.0 1.7 0.00 0.00 0.00 63 1008.9
20260505033506 68 258 0.0 1.7 0.00 0.00 0.00 63 1008.8
20260505033005 68 236 0.0 1.7 0.00 0.00 0.00 62 1008.8
20260505032505 69 248 0.9 1.7 0.00 0.00 0.00 62 1008.8
20260505032006 69 26 0.9 1.7 0.00 0.00 0.00 62 1008.8
20260505031506 69 22 0.0 1.7 0.00 0.00 0.00 62 1008.8
20260505031005 70 250 0.9 1.7 0.00 0.00 0.00 62 1008.7
20260505030505 70 237 0.9 2.6 0.00 0.00 0.00 61 1008.6
20260505025506 71 233 1.7 3.5 0.00 0.00 0.00 59 1008.6
20260505025006 71 234 1.7 3.5 0.00 0.00 0.00 56 1008.5
20260505024506 72 238 0.9 2.6 0.00 0.00 0.00 57 1008.4
20260505024006 72 229 1.7 2.6 0.00 0.00 0.00 55 1008.4
20260505023505 72 224 1.7 2.6 0.00 0.00 0.00 53 1008.3
20260505023005 73 225 1.7 3.5 0.00 0.00 0.00 53 1008.3
20260505022505 73 229 1.7 3.5 0.00 0.00 0.00 52 1008.3
20260505022005 73 245 1.7 3.5 0.00 0.00 0.00 51 1008.4
20260505021505 73 256 2.6 4.3 0.00 0.00 0.00 50 1008.4
20260505021005 74 259 2.6 5.2 0.00 0.00 0.00 50 1008.5
20260505020505 74 261 1.7 5.2 0.00 0.00 0.00 49 1008.4
20260505020006 74 256 1.7 4.3 0.00 0.00 0.00 49 1008.4
20260505015505 74 253 1.7 4.3 0.00 0.00 0.00 49 1008.5
20260505015005 75 257 1.7 4.3 0.00 0.00 0.00 48 1008.4
20260505014505 76 267 1.7 7.0 0.00 0.00 0.00 48 1008.4
20260505013506 76 264 2.6 8.7 0.00 0.00 0.00 46 1008.4
20260505012505 77 275 1.7 5.2 0.00 0.00 0.00 47 1008.3
20260505012005 77 324 1.7 4.3 0.00 0.00 0.00 44 1008.3
20260505011505 78 288 1.7 3.5 0.00 0.00 0.00 42 1008.4
20260505011005 78 233 2.6 4.3 0.00 0.00 0.00 41 1008.3
20260505010505 78 228 1.7 5.2 0.00 0.00 0.00 41 1008.4
20260505010005 78 244 1.7 5.2 0.00 0.00 0.00 41 1008.5
20260505005005 78 229 2.6 6.1 0.00 0.00 0.00 40 1008.4
20260505004505 78 237 2.6 6.1 0.00 0.00 0.00 41 1008.5
20260505004005 78 241 2.6 5.2 0.00 0.00 0.00 41 1008.5
20260505003505 78 225 1.7 4.3 0.00 0.00 0.00 43 1008.5
20260505003005 78 241 1.7 4.3 0.00 0.00 0.00 43 1008.5
20260505002505 78 236 1.7 5.2 0.00 0.00 0.00 41 1008.6
20260505001504 78 236 1.7 4.3 0.00 0.00 0.00 41 1008.6
20260505000505 79 271 1.7 6.1 0.00 0.00 0.00 42 1008.6
20260505000005 78 279 1.7 4.3 0.00 0.00 0.00 43 1008.6
20260504235505 78 219 1.7 5.2 0.00 0.00 0.00 44 1008.6
20260504235005 79 227 3.5 6.1 0.00 0.00 0.00 42 1008.7
20260504234505 79 237 3.5 7.8 0.00 0.00 0.00 43 1008.8
20260504234004 79 239 2.6 7.8 0.00 0.00 0.00 42 1008.8
20260504233505 79 213 1.7 4.3 0.00 0.00 0.00 42 1008.7
20260504232005 79 285 1.7 6.1 0.00 0.00 0.00 40 1008.8
20260504231505 79 251 2.6 7.0 0.00 0.00 0.00 43 1008.8
20260504231005 79 253 2.6 7.0 0.00 0.00 0.00 43 1008.8
20260504230505 78 237 1.7 6.1 0.00 0.00 0.00 44 1008.8
20260504230005 78 216 1.7 6.1 0.00 0.00 0.00 42 1008.8
20260504225005 78 268 2.6 7.0 0.00 0.00 0.00 43 1009.0
20260504224504 78 230 2.6 7.0 0.00 0.00 0.00 44 1009.0
20260504224005 78 219 2.6 7.0 0.00 0.00 0.00 42 1009.1
20260504223505 78 234 3.5 7.8 0.00 0.00 0.00 43 1009.1
20260504223005 78 236 4.3 8.7 0.00 0.00 0.00 44 1009.3
20260504222505 78 229 3.5 8.7 0.00 0.00 0.00 44 1009.4
20260504222005 79 227 2.6 6.1 0.00 0.00 0.00 44 1009.3
20260504221505 79 237 2.6 7.8 0.00 0.00 0.00 44 1009.4
20260504221006 79 229 3.5 7.8 0.00 0.00 0.00 43 1009.5
20260504220505 79 211 2.6 7.0 0.00 0.00 0.00 43 1009.6
20260504220005 79 219 2.6 7.0 0.00 0.00 0.00 43 1009.6
20260504215505 79 228 1.7 5.2 0.00 0.00 0.00 42 1009.6
20260504215005 79 225 2.6 5.2 0.00 0.00 0.00 42 1009.7
20260504214505 80 221 2.6 7.0 0.00 0.00 0.00 42 1009.7
20260504214005 80 227 2.6 7.8 0.00 0.00 0.00 42 1009.7
20260504213505 80 235 3.5 9.6 0.00 0.00 0.00 43 1009.7
20260504213005 80 239 3.5 9.6 0.00 0.00 0.00 43 1009.7
20260504212005 80 242 2.6 7.8 0.00 0.00 0.00 40 1009.9
20260504211505 80 246 2.6 7.0 0.00 0.00 0.00 41 1009.8
20260504211005 81 237 2.6 8.7 0.00 0.00 0.00 39 1009.9
20260504210505 81 239 2.6 8.7 0.00 0.00 0.00 37 1009.8
20260504210005 80 234 2.6 6.1 0.00 0.00 0.00 37 1009.9
20260504205504 80 198 2.6 5.2 0.00 0.00 0.00 37 1009.9
20260504205005 80 219 2.6 5.2 0.00 0.00 0.00 38 1009.9
20260504204504 80 222 1.7 6.1 0.00 0.00 0.00 37 1009.9
20260504203504 80 122 1.7 6.1 0.00 0.00 0.00 37 1009.9
20260504203005 79 116 1.7 6.1 0.00 0.00 0.00 36 1010.0
20260504202505 79 137 1.7 4.3 0.00 0.00 0.00 37 1010.0
20260504202005 79 216 2.6 5.2 0.00 0.00 0.00 37 1010.0
20260504201505 79 207 1.7 6.1 0.00 0.00 0.00 36 1010.0
20260504201005 79 172 1.7 6.1 0.00 0.00 0.00 38 1010.0
20260504200504 78 184 1.7 7.0 0.00 0.00 0.00 41 1010.1
20260504195504 78 124 1.7 6.1 0.00 0.00 0.00 42 1010.1
20260504195005 77 182 1.7 6.1 0.00 0.00 0.00 40 1010.0
20260504194504 78 190 1.7 6.1 0.00 0.00 0.00 41 1010.1
20260504193505 78 181 1.7 6.1 0.00 0.00 0.00 43 1010.1
20260504192005 76 226 1.7 5.2 0.00 0.00 0.00 46 1010.2
20260504191505 76 195 1.7 5.2 0.00 0.00 0.00 44 1010.2
20260504191004 75 192 1.7 4.3 0.00 0.00 0.00 47 1010.2
20260504190005 74 221 2.6 4.3 0.00 0.00 0.00 46 1010.2
20260504185505 74 211 1.7 4.3 0.00 0.00 0.00 46 1010.3
20260504185004 73 214 1.7 4.3 0.00 0.00 0.00 43 1010.4
20260504184505 73 247 1.7 6.1 0.00 0.00 0.00 44 1010.5
20260504184005 72 245 1.7 6.1 0.00 0.00 0.00 44 1010.5
20260504183005 72 247 2.6 4.3 0.00 0.00 0.00 48 1010.5
20260504182505 71 240 2.6 5.2 0.00 0.00 0.00 49 1010.5
20260504182005 71 247 2.6 5.2 0.00 0.00 0.00 47 1010.6
20260504181505 71 267 2.6 6.1 0.00 0.00 0.00 48 1010.6
20260504181005 70 237 2.6 7.0 0.00 0.00 0.00 49 1010.6
20260504180504 70 227 2.6 7.0 0.00 0.00 0.00 50 1010.6
20260504180005 70 226 1.7 5.2 0.00 0.00 0.00 49 1010.6
20260504175505 70 249 1.7 3.5 0.00 0.00 0.00 50 1010.6
20260504175005 69 265 1.7 6.1 0.00 0.00 0.00 51 1010.6
20260504174505 69 267 2.6 6.1 0.00 0.00 0.00 50 1010.5
20260504174004 69 259 2.6 6.1 0.00 0.00 0.00 52 1010.6
20260504173005 68 237 2.6 6.1 0.00 0.00 0.00 60 1010.6
20260504172505 67 230 2.6 6.1 0.00 0.00 0.00 61 1010.6
20260504172004 67 229 2.6 5.2 0.00 0.00 0.00 63 1010.6
20260504170505 66 225 1.7 4.3 0.00 0.00 0.00 63 1010.6
20260504150505 61 325 0.0 1.7 0.00 0.00 0.00 75 1010.2
20260504141004 53 85 0.0 0.9 0.00 0.00 0.00 88 1009.9
20260504140504 52 85 0.0 0.9 0.00 0.00 0.00 88 1009.8
20260504110505 52 75 0.0 0.9 0.00 0.00 0.00 84 1009.0
20260504100504 53 238 0.0 1.7 0.00 0.00 0.00 82 1008.8